Satellite: ORSTED
Catalog number: 25635
Epoch time:      103015.52410898
Element set:     807 
Inclination:       96.4478 deg
RA of node:         9.9149 deg
Eccentricity:    0.0146968
Arg of perigee:    77.0926 deg
Mean anomaly:     284.6642 deg
Mean motion:   14.44771016 rev/day
Decay rate:    9.0699E-006 rev/day^2
Epoch rev:           20502
Checksum:              339

Satellite: SUNSAT
Catalog number: 25636
Epoch time:      103014.21284942
Element set:     656 
Inclination:       96.4497 deg
RA of node:         7.6478 deg
Eccentricity:    0.0150651
Arg of perigee:    87.2748 deg
Mean anomaly:     274.5683 deg
Mean motion:   14.42917197 rev/day
Decay rate:    3.7600E-006 rev/day^2
Epoch rev:           20471
Checksum:              327

Satellite: UOSAT 12
Catalog number: 25693
Epoch time:      103015.54598525
Element set:     613 
Inclination:       64.5597 deg
RA of node:       114.9178 deg
Eccentricity:    0.0017191
Arg of perigee:   317.2481 deg
Mean anomaly:      42.7283 deg
Mean motion:   14.76348308 rev/day
Decay rate:    7.1700E-006 rev/day^2
Epoch rev:           20123
Checksum:              309

Satellite: FENGYUN 1C
Catalog number: 25730
Epoch time:      103014.57016508
Element set:     742 
Inclination:       98.6367 deg
RA of node:        40.2830 deg
Eccentricity:    0.0015348
Arg of perigee:   101.6966 deg
Mean anomaly:     258.5929 deg
Mean motion:   14.11729198 rev/day
Decay rate:   -2.7999E-007 rev/day^2
Epoch rev:           18969
Checksum:              345

Satellite: ASTRA 1H
Catalog number: 25785
Epoch time:      103013.00000000
Element set:     368 
Inclination:        0.0122 deg
RA of node:       319.8851 deg
Eccentricity:    0.0002995
Arg of perigee:    65.1991 deg
Mean anomaly:     106.1621 deg
Mean motion:    1.00273184 rev/day
Decay rate:    1.3899E-006 rev/day^2
Epoch rev:            1313
Checksum:              244

Satellite: TERRA
Catalog number: 25994
Epoch time:      103015.32132502
Element set:     604 
Inclination:       98.2039 deg
RA of node:        92.0634 deg
Eccentricity:    0.0001105
Arg of perigee:    68.3645 deg
Mean anomaly:     291.7670 deg
Mean motion:   14.57091111 rev/day
Decay rate:    9.4699E-006 rev/day^2
Epoch rev:           16368
Checksum:              298

Satellite: JAWSAT
Catalog number: 26061
Epoch time:      103015.55043234
Element set:     741 
Inclination:      100.2116 deg
RA of node:        66.2968 deg
Eccentricity:    0.0035364
Arg of perigee:    16.2859 deg
Mean anomaly:     343.9451 deg
Mean motion:   14.37781734 rev/day
Decay rate:    6.8499E-006 rev/day^2
Epoch rev:           15564
Checksum:              405

Satellite: OPAL
Catalog number: 26063
Epoch time:      103015.19259967
Element set:     698 
Inclination:      100.2173 deg
RA of node:        63.5271 deg
Eccentricity:    0.0037470
Arg of perigee:    23.6329 deg
Mean anomaly:     336.6561 deg
Mean motion:   14.35465494 rev/day
Decay rate:    2.0400E-006 rev/day^2
Epoch rev:           15545
Checksum:              403

Satellite: ASUSAT
Catalog number: 26065
Epoch time:      103015.56832035
Element set:     709 
Inclination:      100.2166 deg
RA of node:        64.1124 deg
Eccentricity:    0.0037630
Arg of perigee:    24.3016 deg
Mean anomaly:     335.9928 deg
Mean motion:   14.35491875 rev/day
Decay rate:    2.3499E-006 rev/day^2
Epoch rev:           15550
Checksum:              288

Satellite: GOES 11
Catalog number: 26352
Epoch time:      103013.42743074
Element set:     974 
Inclination:        0.0572 deg
RA of node:       112.4066 deg
Eccentricity:    0.0004457
Arg of perigee:   165.3898 deg
Mean anomaly:     236.2428 deg
Mean motion:    1.00261512 rev/day
Decay rate:   -2.0999E-007 rev/day^2
Epoch rev:             987
Checksum:              287

Satellite: EUTELSAT W4
Catalog number: 26369
Epoch time:      103013.79642362
Element set:     337 
Inclination:        0.0445 deg
RA of node:        33.8375 deg
Eccentricity:    0.0004435
Arg of perigee:   200.8022 deg
Mean anomaly:     201.0567 deg
Mean motion:    1.00275710 rev/day
Decay rate:    1.7500E-006 rev/day^2
Epoch rev:             969
Checksum:              257

Satellite: FENGYUN 2B
Catalog number: 26382
Epoch time:      103014.23202736
Element set:     768 
Inclination:        0.6518 deg
RA of node:       287.2693 deg
Eccentricity:    0.0000511
Arg of perigee:   162.2292 deg
Mean anomaly:     211.7565 deg
Mean motion:    1.00265856 rev/day
Decay rate:   -3.0799E-006 rev/day^2
Epoch rev:             935
Checksum:              287

Satellite: EUTELSAT W1
Catalog number: 26487
Epoch time:      103013.00216436
Element set:     341 
Inclination:        0.0486 deg
RA of node:       102.7976 deg
Eccentricity:    0.0003860
Arg of perigee:   182.0647 deg
Mean anomaly:     197.9575 deg
Mean motion:    1.00274920 rev/day
Decay rate:    8.7000E-007 rev/day^2
Epoch rev:             865
Checksum:              278

Satellite: ASTRA 2B
Catalog number: 26494
Epoch time:      103013.00000000
Element set:     251 
Inclination:        0.0178 deg
RA of node:       354.5658 deg
Eccentricity:    0.0005000
Arg of perigee:   302.8402 deg
Mean anomaly:     202.8287 deg
Mean motion:    1.00276704 rev/day
Decay rate:    1.6899E-006 rev/day^2
Epoch rev:             855
Checksum:              240

Satellite: NOAA 16
Catalog number: 26536
Epoch time:      103014.64486374
Element set:     164 
Inclination:       98.8965 deg
RA of node:       323.1949 deg
Eccentricity:    0.0011380
Arg of perigee:    46.6983 deg
Mean anomaly:     313.5116 deg
Mean motion:   14.11881831 rev/day
Decay rate:    1.9199E-006 rev/day^2
Epoch rev:           11922
Checksum:              329

Satellite: SAUDISAT 1A
Catalog number: 26545
Epoch time:      103015.33012070
Element set:     398 
Inclination:       64.5580 deg
RA of node:       137.1484 deg
Eccentricity:    0.0054271
Arg of perigee:   243.9918 deg
Mean anomaly:     115.5587 deg
Mean motion:   14.78880508 rev/day
Decay rate:    2.4810E-005 rev/day^2
Epoch rev:           12415
Checksum:              301

Satellite: UNISAT
Catalog number: 26547
Epoch time:      103015.33353857
Element set:     417 
Inclination:       64.5566 deg
RA of node:       139.5000 deg
Eccentricity:    0.0061343
Arg of perigee:   246.6410 deg
Mean anomaly:     112.8225 deg
Mean motion:   14.79581678 rev/day
Decay rate:    4.1909E-005 rev/day^2
Epoch rev:           12412
Checksum:              296

Satellite: TIUNGSAT 1
Catalog number: 26548
Epoch time:      103013.85231292
Element set:     401 
Inclination:       64.5561 deg
RA of node:       134.9724 deg
Eccentricity:    0.0047577
Arg of perigee:   243.4905 deg
Mean anomaly:     116.1347 deg
Mean motion:   14.81132695 rev/day
Decay rate:    3.2269E-005 rev/day^2
Epoch rev:           12407
Checksum:              394

Satellite: SAUDISAT 1B
Catalog number: 26549
Epoch time:      103014.86793813
Element set:     666 
Inclination:       64.5488 deg
RA of node:       142.5009 deg
Eccentricity:    0.0058686
Arg of perigee:   244.4957 deg
Mean anomaly:     115.0073 deg
Mean motion:   14.77816682 rev/day
Decay rate:    2.2430E-005 rev/day^2
Epoch rev:           12401
Checksum:              321

Satellite: AMSAT OSCAR 40
Catalog number: 26609
Epoch time:      103014.42373129
Element set:     304 
Inclination:        7.9543 deg
RA of node:        70.5875 deg
Eccentricity:    0.7935115
Arg of perigee:   133.0894 deg
Mean anomaly:     327.3710 deg
Mean motion:    1.25596681 rev/day
Decay rate:    2.4999E-007 rev/day^2
Epoch rev:            1014
Checksum:              388

Satellite: GOES 12
Catalog number: 26871
Epoch time:      103014.45037608
Element set:     770 
Inclination:        0.4651 deg
RA of node:        97.7686 deg
Eccentricity:    0.0000765
Arg of perigee:    42.5770 deg
Mean anomaly:      30.0226 deg
Mean motion:    1.00278546 rev/day
Decay rate:   -6.8999E-007 rev/day^2
Epoch rev:             548
Checksum:              422

Satellite: STARSHINE 3
Catalog number: 26929
Epoch time:      103015.54197848
Element set:     677 
Inclination:       67.0207 deg
RA of node:        77.5304 deg
Eccentricity:    0.0007439
Arg of perigee:   329.7092 deg
Mean anomaly:      30.3659 deg
Mean motion:   16.14630918 rev/day
Decay rate:    1.1700E-002 rev/day^2
Epoch rev:            7342
Checksum:              417

Satellite: PCSAT
Catalog number: 26931
Epoch time:      103015.23271927
Element set:     377 
Inclination:       67.0482 deg
RA of node:       344.0080 deg
Eccentricity:    0.0005327
Arg of perigee:   258.4296 deg
Mean anomaly:     101.6207 deg
Mean motion:   14.29094076 rev/day
Decay rate:    3.1699E-006 rev/day^2
Epoch rev:            6744
Checksum:              302

Satellite: SAPPHIRE
Catalog number: 26932
Epoch time:      103015.56499786
Element set:     372 
Inclination:       67.0542 deg
RA of node:       342.8653 deg
Eccentricity:    0.0006226
Arg of perigee:   239.1697 deg
Mean anomaly:     120.8793 deg
Mean motion:   14.29279184 rev/day
Decay rate:    2.0400E-006 rev/day^2
Epoch rev:            6751
Checksum:              323

Satellite: ENVISAT
Catalog number: 27386
Epoch time:      103015.45324303
Element set:     846 
Inclination:       98.5500 deg
RA of node:        84.4966 deg
Eccentricity:    0.0000902
Arg of perigee:    95.9838 deg
Mean anomaly:     264.1436 deg
Mean motion:   14.32252519 rev/day
Decay rate:    1.9999E-008 rev/day^2
Epoch rev:            4586
Checksum:              447

